Weather History for KMRT - November, 2012

Change the Weather History Date:

Saturday, November 17, 2012

  Actual Average (KDLZ) Record (KDLZ)
Temperature  
Mean Temperature 40 °F -  
Max Temperature 56 °F 49 °F 75 °F (1958)
Min Temperature 25 °F 29 °F 13 °F (1959)
Degree Days  
Heating Degree Days 25    
Moisture  
Dew Point 28 °F    
Average Humidity 69    
Maximum Humidity 96    
Minimum Humidity 33    
Precipitation  
Precipitation 0.00 in - - ()
Sea Level Pressure  
Sea Level Pressure 30.52 in    
Wind  
Wind Speed 2 mph (East)    
Max Wind Speed 9 mph    
Max Gust Speed -    
Visibility 7 miles    
Events      
Averages and records for this station are not official NWS values.
T = Trace of Precipitation, MM = Missing Value Source: NWS Daily Summary

Daily Weather History Graph

Daily Weather History Graph

Search for Another Location

Airport or City:

Trip Planner

Search our weather history database for the weather conditions in past years. The results will help you decide how hot, cold, wet, or windy it might be!

Date:

Astronomy

Nov. 17, 2012 Rise Set
Actual Time 7:21 AM EST 5:14 PM EST
Civil Twilight 6:52 AM EST 5:43 PM EST
Nautical Twilight 6:19 AM EST 6:16 PM EST
Astronomical Twilight 5:47 AM EST 6:49 PM EST
Moon 11:05 AM EST (11/17) 9:23 PM EST (11/17)
Length of Visible Light 10h 51m
Length of Day
9h 52m
Waxing Crescent, 20% of the Moon is Illuminated
Nov 17
Waxing Crescent
Nov 20
First Quarter
Nov 28
Full
Dec 6
Last Quarter
Dec 13
New

Hourly Weather History & Observations

Time (EST) Temp. Windchill Dew Point Humidity Pressure Visibility Wind Dir Wind Speed Gust Speed Precip Events Conditions
12:14 AM 29.8 °F - 26.8 °F 88% 30.49 in 5.0 mi Calm Calm - N/A   Clear
12:34 AM 30.9 °F - 28.9 °F 92% 30.49 in 5.0 mi Calm Calm - N/A   Clear
12:54 AM 30.7 °F - 29.1 °F 94% 30.49 in 5.0 mi Calm Calm - N/A   Clear
1:14 AM 30.7 °F - 28.0 °F 90% 30.49 in 5.0 mi Calm Calm - N/A   Clear
1:34 AM 30.4 °F - 27.7 °F 90% 30.49 in 5.0 mi Calm Calm - N/A   Clear
1:54 AM 28.9 °F - 26.6 °F 91% 30.50 in 4.0 mi Calm Calm - N/A   Clear
2:14 AM 27.9 °F - 26.1 °F 93% 30.50 in 4.0 mi Calm Calm - N/A   Clear
2:34 AM 28.6 °F - 27.0 °F 94% 30.50 in 3.0 mi Calm Calm - N/A   Clear
2:54 AM 29.1 °F - 27.0 °F 92% 30.50 in 4.0 mi Calm Calm - N/A   Clear
3:15 AM 27.9 °F - 26.2 °F 94% 30.50 in 3.0 mi Calm Calm - N/A   Clear
3:34 AM 27.7 °F - 25.7 °F 92% 30.50 in 3.0 mi Calm Calm - N/A   Clear
3:54 AM 27.0 °F - 25.5 °F 94% 30.50 in 2.5 mi Calm Calm - N/A   Clear
4:15 AM 27.0 °F - 25.7 °F 95% 30.51 in 2.5 mi Calm Calm - N/A   Clear
4:34 AM 27.1 °F - 26.1 °F 96% 30.51 in 3.0 mi Calm Calm - N/A   Clear
4:54 AM 27.0 °F - 25.9 °F 96% 30.51 in 3.0 mi Calm Calm - N/A   Clear
5:15 AM 27.5 °F - 26.6 °F 96% 30.51 in 3.0 mi Calm Calm - N/A   Clear
5:34 AM 25.7 °F - 24.6 °F 96% 30.52 in 2.0 mi Calm Calm - N/A   Clear
5:54 AM 26.4 °F - 25.0 °F 94% 30.52 in 3.0 mi Calm Calm - N/A   Clear
6:15 AM 26.4 °F - 24.8 °F 94% 30.53 in 3.0 mi Calm Calm - N/A   Clear
6:34 AM 26.6 °F - 25.2 °F 94% 30.53 in 2.5 mi Calm Calm - N/A   Clear
6:54 AM 25.7 °F - 24.6 °F 96% 30.53 in 3.0 mi Calm Calm - N/A   Clear
7:15 AM 26.4 °F - 24.8 °F 94% 30.54 in 2.5 mi Calm Calm - N/A   Clear
7:34 AM 26.2 °F - 24.6 °F 94% 30.54 in 2.5 mi Calm Calm - N/A   Clear
7:54 AM 27.0 °F - 25.5 °F 94% 30.55 in 1.8 mi Calm Calm - N/A   Unknown
8:34 AM 30.2 °F - 28.6 °F 94% 30.56 in 2.0 mi Calm Calm - N/A   Clear
8:54 AM 33.4 °F - 30.6 °F 89% 30.57 in 4.0 mi Calm Calm - N/A   Clear
9:15 AM 36.0 °F - 30.2 °F 80% 30.57 in 7.0 mi Calm Calm - N/A   Clear
9:34 AM 38.1 °F 35.7 °F 30.2 °F 73% 30.57 in 7.0 mi ENE 3.5 mph - N/A   Clear
9:54 AM 39.9 °F 37.8 °F 30.9 °F 70% 30.57 in 10.0 mi East 3.5 mph - N/A   Clear
10:15 AM 42.6 °F 39.9 °F 30.6 °F 62% 30.58 in 10.0 mi East 4.6 mph - N/A   Clear
10:34 AM 44.1 °F 41.5 °F 30.6 °F 59% 30.58 in 10.0 mi East 4.6 mph - N/A   Clear
10:54 AM 45.5 °F 43.2 °F 31.1 °F 57% 30.58 in 10.0 mi East 4.6 mph - N/A   Clear
11:15 AM 47.5 °F - 31.1 °F 53% 30.57 in 10.0 mi ESE 6.9 mph - N/A   Clear
11:34 AM 48.9 °F - 30.4 °F 49% 30.57 in 10.0 mi ESE 5.8 mph - N/A   Clear
11:54 AM 50.2 °F - 30.2 °F 46% 30.56 in 10.0 mi Calm Calm - N/A   Clear
12:13 PM 51.8 °F - 28.6 °F 41% 30.55 in 10.0 mi SE 4.6 mph - N/A   Clear
12:34 PM 52.3 °F - 28.4 °F 40% 30.55 in 10.0 mi SE 3.5 mph - N/A   Clear
12:54 PM 52.9 °F - 27.7 °F 38% 30.54 in 10.0 mi NE 3.5 mph - N/A   Clear
1:14 PM 53.8 °F - 27.3 °F 36% 30.53 in 10.0 mi ESE 4.6 mph - N/A   Clear
1:34 PM 54.5 °F - 28.2 °F 36% 30.52 in 10.0 mi East 5.8 mph - N/A   Clear
1:54 PM 54.9 °F - 27.5 °F 35% 30.52 in 10.0 mi East 6.9 mph - N/A   Clear
2:14 PM 55.0 °F - 27.1 °F 34% 30.51 in 10.0 mi East 6.9 mph - N/A   Clear
2:34 PM 55.6 °F - 27.3 °F 34% 30.51 in 10.0 mi East 8.1 mph - N/A   Clear
2:55 PM 55.8 °F - 26.8 °F 33% 30.51 in 10.0 mi East 6.9 mph - N/A   Clear
3:14 PM 55.8 °F - 27.1 °F 33% 30.50 in 10.0 mi East 6.9 mph - N/A   Clear
3:34 PM 55.4 °F - 27.7 °F 35% 30.50 in 10.0 mi ESE 9.2 mph - N/A   Clear
3:54 PM 54.9 °F - 27.9 °F 35% 30.50 in 10.0 mi East 8.1 mph - N/A   Clear
4:14 PM 54.0 °F - 29.5 °F 39% 30.50 in 10.0 mi East 6.9 mph - N/A   Clear
4:34 PM 52.9 °F - 29.1 °F 40% 30.50 in 10.0 mi East 8.1 mph - N/A   Clear
4:54 PM 49.8 °F - 30.2 °F 47% 30.50 in 10.0 mi East 4.6 mph - N/A   Clear
5:14 PM 45.7 °F 43.4 °F 29.5 °F 53% 30.50 in 10.0 mi ENE 4.6 mph - N/A   Clear
5:34 PM 47.1 °F - 28.6 °F 49% 30.50 in 10.0 mi East 5.8 mph - N/A   Clear
5:54 PM 45.0 °F 43.5 °F 28.4 °F 52% 30.50 in 10.0 mi East 3.5 mph - N/A   Clear
6:14 PM 43.5 °F - 27.9 °F 54% 30.50 in 10.0 mi Calm Calm - N/A   Clear
6:34 PM 39.7 °F 37.6 °F 28.6 °F 64% 30.51 in 10.0 mi East 3.5 mph - N/A   Clear
6:54 PM 40.5 °F 37.3 °F 28.6 °F 63% 30.50 in 10.0 mi East 4.6 mph - N/A   Clear
7:14 PM 44.1 °F 40.1 °F 29.3 °F 56% 30.50 in 10.0 mi East 6.9 mph - N/A   Clear
7:34 PM 43.3 °F 39.2 °F 29.3 °F 58% 30.51 in 10.0 mi East 6.9 mph - N/A   Clear
7:55 PM 40.8 °F 36.9 °F 29.3 °F 64% 30.51 in 10.0 mi East 5.8 mph - N/A   Clear
8:14 PM 39.7 °F 36.5 °F 29.3 °F 66% 30.51 in 10.0 mi East 4.6 mph - N/A   Clear
8:34 PM 38.8 °F 36.5 °F 28.9 °F 68% 30.51 in 10.0 mi East 3.5 mph - N/A   Clear
8:55 PM 39.9 °F - 28.8 °F 64% 30.51 in 10.0 mi Calm Calm - N/A   Clear
9:14 PM 39.6 °F - 28.2 °F 64% 30.51 in 7.0 mi Calm Calm - N/A   Clear
9:34 PM 36.5 °F 33.9 °F 27.7 °F 70% 30.51 in 10.0 mi East 3.5 mph - N/A   Clear
9:55 PM 39.4 °F - 28.4 °F 65% 30.51 in 10.0 mi Calm Calm - N/A   Clear
10:14 PM 38.7 °F - 28.2 °F 66% 30.51 in 10.0 mi Calm Calm - N/A   Clear
10:34 PM 36.7 °F 34.1 °F 26.6 °F 67% 30.51 in 10.0 mi NE 3.5 mph - N/A   Clear
10:55 PM 37.9 °F - 27.9 °F 67% 30.50 in 10.0 mi Calm Calm - N/A   Clear
11:14 PM 32.7 °F - 26.2 °F 77% 30.49 in 10.0 mi Calm Calm - N/A   Clear
11:34 PM 32.7 °F - 27.3 °F 81% 30.49 in 10.0 mi Calm Calm - N/A   Clear
11:55 PM 33.3 °F - 27.5 °F 79% 30.49 in 10.0 mi Calm Calm - N/A   Clear